Weather History for Newport News, VA

Change the Weather History Date:

Sunday, September 16, 2012

  Actual Average Record
Temperature  
Mean Temperature 64 °F -  
Max Temperature 75 °F 81 °F 94 °F (1952)
Min Temperature 54 °F 63 °F 44 °F (1999)
Degree Days  
Heating Degree Days 2    
Growing Degree Days 14 (Base 50)    
Moisture  
Dew Point 54 °F    
Average Humidity 72    
Maximum Humidity 94    
Minimum Humidity 51    
Precipitation  
Precipitation 0.00 in - - ()
Sea Level Pressure  
Sea Level Pressure 30.14 in    
Wind  
Wind Speed 2 mph (West)    
Max Wind Speed 7 mph    
Max Gust Speed -    
Visibility 10 miles    
Events      
Averages and records for this station are not official NWS values.
T = Trace of Precipitation, MM = Missing Value Source: NWS Daily Summary

Daily Weather History Graph

Daily Weather History Graph

Search for Another Location

Airport:

Trip Planner

Search our weather history database for the weather conditions in past years. The results will help you decide how hot, cold, wet, or windy it might be!

Date:

Astronomy

Sep. 16, 2012 Rise Set
Actual Time 6:49 AM EDT 7:11 PM EDT
Civil Twilight 6:23 AM EDT 7:37 PM EDT
Nautical Twilight 5:52 AM EDT 8:07 PM EDT
Astronomical Twilight 5:21 AM EDT 8:38 PM EDT
Moon 7:23 AM EDT (9/16) 7:18 PM EDT (9/16)
Length of Visible Light 13h 14m
Length of Day
12h 22m
New Moon, 0% of the Moon is Illuminated
Sep 16
New Moon
Sep 22
First Quarter
Sep 29
Full
Oct 8
Last Quarter
Oct 15
New

Hourly Weather History & Observations

Time (EDT) Temp. Dew Point Humidity Pressure Visibility Wind Dir Wind Speed Gust Speed Precip Events Conditions
12:54 AM 55.0 °F 51.1 °F 86% 30.14 in 10.0 mi Calm Calm - N/A   Clear
1:54 AM 54.0 °F 51.1 °F 90% 30.14 in 10.0 mi Calm Calm - N/A   Clear
2:54 AM 55.0 °F 51.1 °F 86% 30.14 in 10.0 mi Calm Calm - N/A   Clear
3:54 AM 54.0 °F 51.1 °F 90% 30.13 in 10.0 mi Calm Calm - N/A   Clear
4:54 AM 55.9 °F 53.1 °F 90% 30.14 in 10.0 mi Calm Calm - N/A   Clear
5:54 AM 55.9 °F 53.1 °F 90% 30.15 in 10.0 mi Calm Calm - N/A   Clear
6:54 AM 55.0 °F 53.1 °F 93% 30.16 in 10.0 mi Calm Calm - N/A   Clear
7:54 AM 57.2 °F 55.4 °F 94% 30.16 in 10.0 mi Calm Calm - N/A   Clear
8:54 AM 66.9 °F 61.0 °F 81% 30.17 in 10.0 mi Calm Calm - N/A   Clear
9:54 AM 69.1 °F 60.1 °F 73% 30.18 in 10.0 mi Calm Calm - N/A   Clear
10:54 AM 73.0 °F 55.0 °F 53% 30.17 in 10.0 mi Variable 3.5 mph - N/A   Clear
11:54 AM 73.9 °F 55.0 °F 52% 30.16 in 10.0 mi South 5.8 mph - N/A   Partly Cloudy
12:54 PM 73.0 °F 54.0 °F 51% 30.15 in 10.0 mi SW 6.9 mph - N/A   Mostly Cloudy
1:54 PM 71.1 °F 54.0 °F 55% 30.15 in 10.0 mi WNW 6.9 mph - N/A   Overcast
2:54 PM 72.0 °F 53.1 °F 51% 30.13 in 10.0 mi West 6.9 mph - N/A   Overcast
3:54 PM 71.1 °F 54.0 °F 55% 30.12 in 10.0 mi WNW 5.8 mph - N/A   Mostly Cloudy
4:54 PM 70.0 °F 52.0 °F 53% 30.10 in 10.0 mi West 5.8 mph - 0.00 in   Overcast
5:54 PM 69.8 °F 51.8 °F 53% 30.10 in 10.0 mi West 4.6 mph - N/A   Mostly Cloudy
6:54 PM 68.0 °F 52.0 °F 56% 30.11 in 10.0 mi WSW 4.6 mph - N/A   Overcast
7:54 PM 68.0 °F 53.1 °F 59% 30.12 in 10.0 mi West 5.8 mph - N/A   Overcast
8:54 PM 66.0 °F 55.0 °F 68% 30.12 in 10.0 mi Calm Calm - N/A   Overcast
9:54 PM 64.9 °F 57.0 °F 75% 30.12 in 10.0 mi Calm Calm - N/A   Overcast
10:54 PM 64.0 °F 57.9 °F 80% 30.13 in 10.0 mi Calm Calm - N/A   Overcast
11:54 PM 64.0 °F 59.0 °F 84% 30.13 in 10.0 mi Calm Calm - N/A   Overcast